SHIYAN 12 01 (SY-12 01)

导读

SHIYAN 12 01(SY-12 01)是中国研制的一颗试验卫星,主要用于开展空间科学与技术试验任务。该卫星于2023年成功发射,旨在验证新型通信、导航和遥感等关键技术,提升中国在航天领域的自主创新能力。SY-12 01的发射为中国后续卫星系统的建设和应用奠定了基础,具有重要的科研和战略意义。

Basic Information
目录编号:
50321
目录名称:
SHIYAN 12 01 (SY-12 01)
国际标识:
2021-129A
轨道中心:
EARTH
卫星名称:
SHIYAN 12 01 (SY-12 01)
卫星全名:
--
卫星状态:
在轨 (已飞行1641 天)
发射日期:
2021-12-23 UTC
国别 :
中国 (CN)
星等 :
--
Orbit Information
数据来源 国际轨道数据 AOE轨道数据
星历时间 2026-06-20T08:10:52+0800
1天前
查看轨道信息
2026-06-21T08:00:00+0800
5小时前
查看轨道信息
半长轴 42229.667km 42229.582km
偏心率 0.0003238 0.0003291
轨道倾角 3.683° 3.685°
近地点辐角 288.098° 291.219°
升交点赤经 79.873° 79.862°
平近点角 320.712° 315.038°
近地点 35837.856km 35837.547km
远地点 35865.204km 35865.343km
周期 1439.416分钟 1439.411分钟
每日圈数 1.000406 1.000409
Detailed Information
使用方式:
暂无
2D Orbit Map
3D Orbit Map
Orbit Altitude Analysis Chart
Orbit Inclination Analysis Chart
Orbit Comprehensive Analysis Chart
View Comprehensive Chart